This demonstration page uses our WeatherBlox Daily Observations layout. Learn more.

Left ArrowRight Arrow

Hourly Observations for January 30, 2022

Temp ( °F °C ) Dew Point ( °F °C ) Humidity (%) Winds ( mph kmh ) Pressure ( in mb ) Visibility ( mi km ) Precip ( " mm )
12:53 am 00:53 Clear 36 2.2 30 -1.1 79 79 Calm 30.19 1022 9 14 0.00 0.00
1:53 am 01:53 Clear 36 2.2 29 -1.7 76 76 NNE 3 6 30.19 1022 9 14 0.00 0.00
2:53 am 02:53 Clear 34 1.1 29 -1.7 82 82 Calm 30.19 1022 8 13 0.00 0.00
3:53 am 03:53 Clear 33 0.6 29 -1.7 85 85 Calm 30.19 1022 8 13 0.00 0.00
4:53 am 04:53 Clear 32 0 27 -2.8 82 82 Calm 30.20 1023 8 13 0.00 0.00
5:53 am 05:53 Clear 30 -1.1 27 -2.8 88 88 W 3 6 30.21 1023 9 14 0.00 0.00
6:53 am 06:53 Clear 31 -0.6 26 -3.3 82 82 Calm 30.21 1023 8 13 0.00 0.00
7:53 am 07:53 Sunny 32 0 27 -2.8 82 82 Calm 30.23 1024 8 13 0.00 0.00
8:53 am 08:53 Sunny 37 2.8 31 -0.6 79 79 Calm 30.24 1024 9 14 0.00 0.00
9:53 am 09:53 Sunny 44 6.7 33 0.6 65 65 Calm 30.24 1024 10 16 0.00 0.00
10:53 am 10:53 Sunny 51 10.6 34 1.1 52 52 VRB 3 6 30.24 1024 10 16 0.00 0.00
11:53 am 11:53 Sunny 55 12.8 32 0 42 42 Calm 30.22 1023 10 16 0.00 0.00
12:53 pm 12:53 Sunny 58 14.4 34 1.1 41 41 S 3 6 30.19 1023 10 16 0.00 0.00
1:53 pm 13:53 Sunny 61 16.1 34 1.1 36 36 S 6 9 30.16 1021 10 16 0.00 0.00
2:53 pm 14:53 Sunny 62 16.7 34 1.1 35 35 Calm 30.16 1021 10 16 0.00 0.00
3:53 pm 15:53 Sunny 61 16.1 34 1.1 36 36 S 3 6 30.15 1021 10 16 0.00 0.00
4:53 pm 16:53 Sunny 57 13.9 40 4.4 53 53 SE 6 9 30.16 1021 10 16 0.00 0.00
5:53 pm 17:53 Clear 54 12.2 40 4.4 59 59 SSE 5 7 30.17 1022 10 16 0.00 0.00
6:53 pm 18:53 Clear 52 11.1 39 3.9 61 61 SSE 5 7 30.18 1022 10 16 0.00 0.00
7:53 pm 19:53 Clear 50 10 38 3.3 63 63 Calm 30.20 1023 10 16 0.00 0.00
8:53 pm 20:53 Clear 46 7.8 37 2.8 71 71 N 3 6 30.22 1023 10 16 0.00 0.00
9:53 pm 21:53 Clear 44 6.7 36 2.2 73 73 Calm 30.23 1024 10 16 0.00 0.00
10:53 pm 22:53 Clear 44 6.7 36 2.2 73 73 NNE 5 7 30.25 1024 10 16 0.00 0.00
11:53 pm 23:53 Clear 41 5 35 1.7 79 79 Calm 30.25 1024 10 16 0.00 0.00

Powered by AerisWeather